QPF
0.01 0.01 0.02 0.02 0.02 0.02 0.04 0.06 0.06 0.06 0.03 0.03 0.02 0.01 0.01 0.02 0.01 0.01 0.02 0.02 0.02 0.03 0.05 0.07 0.07 0.07 0.07 0.08 0.09 0.10 0.10 0.10 0.08 0.06 0.04 0.05 0.04 0.04 0.06 0.07 0.05 0.05 0.06
0.01 0.02 0.02 0.03 0.02 0.02 0.04 0.06 0.06 0.05 0.03 0.04 0.03 0.03 0.02 0.02 0.02 0.02 0.03 0.01 0.01 0.02 0.03 0.04 0.05 0.07 0.10 0.10 0.10 0.11 0.11 0.09 0.11 0.10 0.09 0.07 0.07 0.07 0.06 0.07 0.06 0.06 0.05
0.03 0.03 0.04 0.04 0.04 0.03 0.04 0.06 0.05 0.04 0.04 0.03 0.02 0.02 0.02 0.01 0.02 0.03 0.03 0.01 0.01 0.02 0.03 0.04 0.04 0.06 0.08 0.09 0.10 0.10 0.10 0.09 0.11 0.13 0.15 0.15 0.12 0.08 0.06 0.05 0.06 0.06 0.06
0.02 0.02 0.04 0.05 0.04 0.03 0.03 0.03 0.04 0.05 0.04 0.03 0.02 0.01 0.02 0.02 0.03 0.03 0.03 0.02 0.02 0.02 0.03 0.05 0.07 0.08 0.07 0.08 0.09 0.10 0.10 0.10 0.08 0.06 0.05 0.07 0.07 0.07 0.07 0.06 0.06 0.05 0.05
0.02 0.02 0.03 0.03 0.02 0.03 0.03 0.03 0.03 0.04 0.05 0.03 0.03 0.04 0.04 0.03 0.04 0.04 0.04 0.04 0.04 0.03 0.03 0.04 0.06 0.08 0.09 0.10 0.11 0.12 0.12 0.11 0.12 0.10 0.07 0.06 0.06 0.07 0.07 0.08 0.06 0.05 0.04
0.04 0.04 0.04 0.03 0.02 0.03 0.03 0.03 0.03 0.04 0.05 0.04 0.04 0.04 0.03 0.03 0.03 0.03 0.02 0.02 0.03 0.03 0.03 0.04 0.05 0.05 0.05 0.06 0.10 0.14 0.16 0.15 0.15 0.16 0.12 0.08 0.07 0.08 0.09 0.09 0.07 0.05 0.05
0.03 0.03 0.02 0.02 0.02 0.02 0.01 0.02 0.03 0.04 0.03 0.03 0.03 0.03 0.02 0.02 0.02 0.02 0.02 0.01 0.01 0.02 0.03 0.05 0.05 0.03 0.02 0.03 0.05 0.09 0.12 0.12 0.13 0.13 0.14 0.10 0.08 0.08 0.08 0.07 0.06 0.05 0.05
0.02 0.03 0.03 0.01 0.02 0.02 0.02 0.02 0.02 0.03 0.03 0.02 0.02 0.02 0.01 0.01 0.01 0.01 0.02 0.02 0.02 0.02 0.02 0.04 0.04 0.02 0.02 0.02 0.03 0.05 0.07 0.07 0.10 0.11 0.12 0.13 0.12 0.11 0.10 0.09 0.08 0.07 0.06
0.02 0.02 0.03 0.02 0.02 0.02 0.02 0.04 0.04 0.05 0.03 0.02 0.02 0.02 0.01 0.01 0.01 0.01 0.01 0.02 0.02 0.01 0.01 0.02 0.02 0.03 0.03 0.04 0.04 0.05 0.07 0.04 0.06 0.09 0.11 0.12 0.11 0.11 0.11 0.10 0.11 0.11 0.09
0.02 0.02 0.03 0.02 0.01 0.01 0.01 0.04 0.04 0.04 0.03 0.02 0.02 0.02 0.01 0.01 0.01 0.01 0.01 0.01 0.01 0.01 0.01 0.02 0.02 0.02 0.04 0.05 0.04 0.04 0.05 0.03 0.04 0.05 0.07 0.08 0.08 0.08 0.08 0.09 0.11 0.12 0.12
0.02 0.02 0.02 0.02 0.01 0.01 0.02 0.03 0.02 0.02 0.02 0.02 0.02 0.03 0.02 0.02 0.01 0.01 0.01 0.01 0.01 0.01 0.01 0.01 0.02 0.03 0.04 0.04 0.04 0.03 0.03 0.04 0.04 0.04 0.03 0.05 0.06 0.05 0.06 0.07 0.09 0.12 0.11
0.02 0.03 0.03 0.02 0.01 0.02 0.01 0.02 0.01 0.01 0.01 0.01 0.01 0.02 0.03 0.04 0.02 0.01 0.01 0.01 0.00 0.00 0.01 0.01 0.01 0.02 0.03 0.04 0.03 0.03 0.02 0.03 0.04 0.04 0.05 0.05 0.05 0.05 0.05 0.05 0.07 0.08 0.10
0.02 0.03 0.02 0.02 0.02 0.03 0.02 0.01 0.02 0.03 0.03 0.03 0.03 0.03 0.02 0.02 0.02 0.02 0.02 0.01 0.01 0.00 0.01 0.00 0.00 0.01 0.01 0.02 0.03 0.03 0.02 0.03 0.02 0.03 0.05 0.06 0.05 0.04 0.05 0.06 0.05 0.05 0.07
0.02 0.03 0.02 0.02 0.02 0.03 0.02 0.01 0.02 0.03 0.03 0.03 0.04 0.04 0.03 0.03 0.03 0.03 0.03 0.03 0.01 0.00 0.01 0.01 0.01 0.01 0.01 0.01 0.01 0.01 0.01 0.01 0.01 0.01 0.02 0.07 0.08 0.05 0.03 0.05 0.06 0.04 0.04
0.03 0.03 0.03 0.03 0.03 0.03 0.03 0.02 0.01 0.03 0.03 0.02 0.03 0.03 0.02 0.03 0.05 0.05 0.04 0.04 0.03 0.02 0.01 0.01 0.02 0.02 0.02 0.01 0.01 0.01 0.01 0.01 0.02 0.02 0.03 0.05 0.06 0.04 0.03 0.04 0.04 0.03 0.03
0.04 0.04 0.03 0.03 0.02 0.03 0.04 0.03 0.02 0.03 0.03 0.02 0.03 0.02 0.01 0.02 0.04 0.04 0.04 0.05 0.05 0.05 0.04 0.03 0.03 0.02 0.02 0.01 0.01 0.01 0.02 0.02 0.02 0.02 0.03 0.04 0.06 0.06 0.04 0.04 0.03 0.02 0.02
0.04 0.04 0.05 0.05 0.04 0.04 0.05 0.04 0.03 0.03 0.02 0.03 0.04 0.03 0.02 0.04 0.04 0.04 0.05 0.05 0.05 0.04 0.04 0.04 0.03 0.02 0.02 0.02 0.01 0.01 0.01 0.01 0.01 0.01 0.02 0.02 0.03 0.04 0.03 0.02 0.02 0.02 0.02
0.03 0.04 0.05 0.07 0.08 0.08 0.07 0.06 0.04 0.04 0.03 0.03 0.03 0.03 0.02 0.04 0.05 0.05 0.05 0.05 0.04 0.03 0.03 0.02 0.02 0.02 0.02 0.01 0.01 0.01 0.01 0.01 0.00 0.00 0.01 0.01 0.01 0.01 0.02 0.02 0.02 0.02 0.02
0.03 0.03 0.04 0.05 0.05 0.06 0.06 0.05 0.04 0.04 0.04 0.04 0.03 0.03 0.03 0.04 0.04 0.05 0.04 0.04 0.03 0.02 0.02 0.01 0.01 0.01 0.01 0.01 0.01 0.00 0.00 0.00 0.01 0.01 0.01 0.01 0.00 0.00 0.01 0.01 0.01 0.02 0.02
0.03 0.04 0.04 0.04 0.04 0.05 0.04 0.04 0.05 0.05 0.05 0.04 0.03 0.03 0.03 0.02 0.02 0.03 0.03 0.02 0.02 0.02 0.01 0.01 0.00 0.01 0.01 0.01 0.00 0.00 0.00 0.00 0.01 0.01 0.01 0.01 0.01 0.01 0.01 0.01 0.01 0.01 0.02
0.04 0.03 0.04 0.04 0.05 0.04 0.04 0.05 0.06 0.05 0.05 0.04 0.03 0.02 0.02 0.02 0.02 0.02 0.02 0.02 0.02 0.02 0.01 0.01 0.01 0.01 0.00 0.00 0.00 0.00 0.00 0.01 0.00 0.01 0.01 0.01 0.01 0.02 0.02 0.01 0.01 0.01 0.01
0.04 0.04 0.05 0.06 0.05 0.03 0.03 0.06 0.07 0.06 0.04 0.04 0.03 0.03 0.03 0.03 0.03 0.02 0.02 0.02 0.03 0.04 0.04 0.04 0.03 0.02 0.01 0.00 0.01 0.01 0.01 0.01 0.01 0.00 0.01 0.01 0.01 0.02 0.03 0.02 0.02 0.02 0.02
0.04 0.05 0.05 0.05 0.05 0.03 0.04 0.06 0.05 0.04 0.04 0.04 0.03 0.03 0.03 0.02 0.02 0.01 0.01 0.02 0.02 0.03 0.03 0.04 0.04 0.03 0.02 0.01 0.01 0.01 0.01 0.01 0.01 0.01 0.01 0.01 0.01 0.01 0.02 0.03 0.04 0.03 0.03
0.03 0.03 0.03 0.04 0.04 0.03 0.03 0.04 0.04 0.03 0.02 0.02 0.02 0.03 0.03 0.02 0.01 0.01 0.01 0.01 0.02 0.02 0.03 0.03 0.02 0.01 0.01 0.01 0.02 0.01 0.01 0.01 0.01 0.01 0.01 0.01 0.01 0.01 0.02 0.02 0.03 0.04 0.04
0.03 0.03 0.04 0.05 0.04 0.04 0.04 0.05 0.04 0.03 0.02 0.01 0.02 0.02 0.02 0.02 0.03 0.03 0.02 0.01 0.01 0.02 0.02 0.02 0.02 0.01 0.01 0.02 0.03 0.03 0.01 0.01 0.01 0.02 0.02 0.01 0.01 0.01 0.01 0.01 0.02 0.04 0.04
0.03 0.04 0.04 0.05 0.05 0.06 0.07 0.07 0.06 0.04 0.03 0.03 0.03 0.02 0.03 0.03 0.04 0.03 0.02 0.01 0.01 0.01 0.01 0.01 0.01 0.01 0.01 0.02 0.03 0.02 0.02 0.02 0.01 0.01 0.02 0.02 0.02 0.03 0.03 0.02 0.01 0.02 0.04
MSLP
1017.15 1017.10 1016.95 1016.73 1016.50 1016.28 1016.12 1016.02 1015.98 1015.98 1016.00 1016.01 1016.00 1015.98 1015.96 1015.96 1015.99 1016.08 1016.22 1016.41 1016.61 1016.81 1016.98 1017.12 1017.21 1017.26 1017.30 1017.35 1017.41 1017.50 1017.62 1017.76 1017.91 1018.06 1018.21 1018.34 1018.45 1018.55 1018.63 1018.70 1018.75 1018.80 1018.83
1017.31 1017.22 1017.05 1016.83 1016.59 1016.37 1016.21 1016.12 1016.08 1016.09 1016.10 1016.11 1016.08 1016.02 1015.95 1015.87 1015.83 1015.84 1015.91 1016.03 1016.20 1016.40 1016.59 1016.76 1016.89 1016.99 1017.07 1017.12 1017.18 1017.24 1017.33 1017.43 1017.56 1017.69 1017.83 1017.96 1018.08 1018.19 1018.29 1018.36 1018.42 1018.47 1018.51
1017.45 1017.34 1017.16 1016.94 1016.71 1016.51 1016.36 1016.27 1016.24 1016.24 1016.26 1016.24 1016.19 1016.10 1015.97 1015.82 1015.70 1015.61 1015.59 1015.64 1015.75 1015.91 1016.09 1016.28 1016.44 1016.57 1016.67 1016.74 1016.80 1016.85 1016.91 1016.98 1017.07 1017.19 1017.31 1017.45 1017.58 1017.71 1017.82 1017.92 1018.00 1018.06 1018.10
1017.58 1017.45 1017.27 1017.05 1016.84 1016.66 1016.53 1016.45 1016.43 1016.43 1016.44 1016.41 1016.34 1016.22 1016.04 1015.84 1015.63 1015.45 1015.34 1015.29 1015.32 1015.42 1015.56 1015.72 1015.88 1016.03 1016.14 1016.21 1016.26 1016.30 1016.33 1016.37 1016.44 1016.53 1016.65 1016.78 1016.93 1017.07 1017.21 1017.33 1017.44 1017.52 1017.59
1017.69 1017.54 1017.36 1017.17 1016.98 1016.82 1016.71 1016.64 1016.62 1016.62 1016.63 1016.60 1016.52 1016.38 1016.18 1015.94 1015.67 1015.42 1015.21 1015.06 1014.99 1014.99 1015.06 1015.17 1015.29 1015.41 1015.50 1015.56 1015.60 1015.61 1015.62 1015.64 1015.67 1015.74 1015.84 1015.97 1016.12 1016.28 1016.44 1016.59 1016.72 1016.83 1016.92
1017.76 1017.59 1017.42 1017.26 1017.10 1016.97 1016.88 1016.82 1016.80 1016.80 1016.81 1016.79 1016.72 1016.60 1016.40 1016.15 1015.85 1015.54 1015.25 1015.00 1014.82 1014.71 1014.66 1014.68 1014.72 1014.78 1014.83 1014.85 1014.86 1014.84 1014.82 1014.80 1014.81 1014.85 1014.93 1015.05 1015.20 1015.36 1015.53 1015.70 1015.85 1015.99 1016.10
1017.78 1017.61 1017.45 1017.31 1017.19 1017.09 1017.01 1016.97 1016.95 1016.96 1016.97 1016.97 1016.93 1016.84 1016.68 1016.44 1016.15 1015.81 1015.46 1015.13 1014.83 1014.59 1014.42 1014.30 1014.24 1014.20 1014.17 1014.14 1014.10 1014.04 1013.99 1013.94 1013.91 1013.92 1013.98 1014.07 1014.20 1014.35 1014.52 1014.69 1014.85 1015.00 1015.14
1017.75 1017.58 1017.44 1017.33 1017.24 1017.17 1017.11 1017.08 1017.07 1017.08 1017.10 1017.13 1017.13 1017.09 1016.98 1016.79 1016.53 1016.19 1015.80 1015.40 1015.00 1014.63 1014.32 1014.06 1013.87 1013.71 1013.59 1013.48 1013.38 1013.28 1013.18 1013.10 1013.04 1013.01 1013.03 1013.09 1013.18 1013.31 1013.46 1013.62 1013.77 1013.93 1014.07
1017.67 1017.51 1017.40 1017.33 1017.27 1017.22 1017.18 1017.15 1017.14 1017.15 1017.18 1017.23 1017.27 1017.28 1017.24 1017.11 1016.90 1016.58 1016.18 1015.72 1015.23 1014.75 1014.31 1013.91 1013.58 1013.31 1013.09 1012.90 1012.73 1012.58 1012.45 1012.32 1012.23 1012.16 1012.14 1012.15 1012.21 1012.29 1012.40 1012.53 1012.67 1012.81 1012.95
1017.57 1017.43 1017.35 1017.30 1017.27 1017.25 1017.22 1017.18 1017.16 1017.15 1017.18 1017.23 1017.30 1017.36 1017.37 1017.30 1017.14 1016.85 1016.46 1015.97 1015.43 1014.86 1014.30 1013.79 1013.34 1012.96 1012.64 1012.38 1012.16 1011.96 1011.78 1011.63 1011.50 1011.40 1011.33 1011.29 1011.30 1011.34 1011.40 1011.49 1011.59 1011.70 1011.82
1017.46 1017.34 1017.28 1017.26 1017.25 1017.24 1017.20 1017.15 1017.10 1017.06 1017.06 1017.10 1017.17 1017.24 1017.29 1017.27 1017.15 1016.91 1016.53 1016.04 1015.46 1014.83 1014.20 1013.61 1013.07 1012.61 1012.22 1011.89 1011.62 1011.39 1011.19 1011.00 1010.84 1010.70 1010.59 1010.51 1010.46 1010.45 1010.46 1010.50 1010.56 1010.64 1010.73
1017.33 1017.23 1017.19 1017.19 1017.19 1017.17 1017.12 1017.03 1016.93 1016.84 1016.79 1016.79 1016.83 1016.90 1016.95 1016.96 1016.87 1016.66 1016.31 1015.83 1015.25 1014.61 1013.94 1013.30 1012.71 1012.20 1011.77 1011.41 1011.10 1010.84 1010.61 1010.40 1010.21 1010.03 1009.88 1009.76 1009.67 1009.61 1009.58 1009.58 1009.60 1009.64 1009.70
1017.18 1017.10 1017.07 1017.07 1017.07 1017.03 1016.94 1016.81 1016.65 1016.49 1016.37 1016.30 1016.28 1016.31 1016.35 1016.36 1016.29 1016.11 1015.79 1015.34 1014.79 1014.16 1013.50 1012.86 1012.26 1011.73 1011.27 1010.89 1010.57 1010.28 1010.03 1009.79 1009.57 1009.36 1009.18 1009.02 1008.89 1008.80 1008.74 1008.71 1008.70 1008.70 1008.73
1016.97 1016.91 1016.88 1016.88 1016.85 1016.78 1016.65 1016.46 1016.23 1016.00 1015.80 1015.65 1015.57 1015.54 1015.55 1015.54 1015.47 1015.31 1015.03 1014.63 1014.12 1013.53 1012.91 1012.29 1011.71 1011.19 1010.74 1010.34 1010.00 1009.70 1009.42 1009.15 1008.90 1008.66 1008.44 1008.26 1008.11 1007.99 1007.91 1007.86 1007.83 1007.82 1007.82
1016.68 1016.62 1016.59 1016.57 1016.52 1016.42 1016.24 1016.00 1015.71 1015.41 1015.13 1014.91 1014.76 1014.67 1014.63 1014.60 1014.54 1014.39 1014.15 1013.80 1013.35 1012.82 1012.26 1011.68 1011.14 1010.64 1010.19 1009.79 1009.43 1009.10 1008.79 1008.48 1008.19 1007.92 1007.67 1007.46 1007.29 1007.17 1007.08 1007.02 1006.99 1006.96 1006.95
1016.27 1016.22 1016.19 1016.15 1016.08 1015.95 1015.74 1015.46 1015.12 1014.77 1014.44 1014.16 1013.96 1013.83 1013.75 1013.70 1013.63 1013.50 1013.29 1012.99 1012.60 1012.14 1011.63 1011.11 1010.61 1010.13 1009.69 1009.28 1008.89 1008.53 1008.17 1007.82 1007.48 1007.17 1006.89 1006.65 1006.47 1006.33 1006.25 1006.19 1006.16 1006.13 1006.10
1015.74 1015.69 1015.66 1015.62 1015.54 1015.39 1015.17 1014.88 1014.53 1014.16 1013.81 1013.51 1013.27 1013.12 1013.02 1012.95 1012.88 1012.77 1012.59 1012.33 1011.99 1011.58 1011.13 1010.66 1010.18 1009.72 1009.28 1008.85 1008.43 1008.02 1007.61 1007.20 1006.81 1006.45 1006.13 1005.86 1005.66 1005.52 1005.43 1005.37 1005.34 1005.32 1005.28
1015.10 1015.07 1015.04 1015.01 1014.94 1014.80 1014.60 1014.32 1013.99 1013.64 1013.30 1013.01 1012.78 1012.62 1012.52 1012.45 1012.38 1012.28 1012.12 1011.89 1011.58 1011.21 1010.80 1010.35 1009.90 1009.44 1008.99 1008.53 1008.08 1007.61 1007.15 1006.68 1006.23 1005.81 1005.45 1005.15 1004.91 1004.75 1004.65 1004.59 1004.55 1004.52 1004.48
1014.39 1014.38 1014.38 1014.38 1014.33 1014.23 1014.07 1013.83 1013.55 1013.24 1012.95 1012.69 1012.49 1012.35 1012.25 1012.19 1012.12 1012.03 1011.88 1011.66 1011.38 1011.03 1010.63 1010.20 1009.75 1009.29 1008.82 1008.34 1007.84 1007.33 1006.80 1006.28 1005.77 1005.30 1004.88 1004.53 1004.26 1004.07 1003.93 1003.85 1003.79 1003.75 1003.69
1013.67 1013.70 1013.74 1013.77 1013.77 1013.72 1013.61 1013.44 1013.22 1012.97 1012.74 1012.53 1012.37 1012.25 1012.18 1012.12 1012.06 1011.96 1011.81 1011.59 1011.31 1010.97 1010.58 1010.15 1009.70 1009.23 1008.74 1008.23 1007.70 1007.15 1006.58 1006.01 1005.44 1004.92 1004.45 1004.04 1003.72 1003.47 1003.29 1003.17 1003.08 1003.00 1002.92
1013.01 1013.09 1013.17 1013.25 1013.30 1013.30 1013.24 1013.13 1012.97 1012.79 1012.62 1012.46 1012.34 1012.26 1012.20 1012.15 1012.08 1011.98 1011.82 1011.59 1011.30 1010.95 1010.55 1010.12 1009.67 1009.19 1008.69 1008.17 1007.62 1007.04 1006.44 1005.83 1005.22 1004.65 1004.12 1003.66 1003.28 1002.97 1002.73 1002.55 1002.41 1002.29 1002.18
1012.47 1012.59 1012.72 1012.84 1012.92 1012.97 1012.95 1012.89 1012.78 1012.66 1012.53 1012.42 1012.33 1012.27 1012.22 1012.16 1012.09 1011.96 1011.78 1011.54 1011.24 1010.88 1010.48 1010.05 1009.60 1009.12 1008.62 1008.10 1007.54 1006.95 1006.33 1005.69 1005.05 1004.44 1003.87 1003.35 1002.91 1002.53 1002.23 1001.98 1001.78 1001.61 1001.46
1012.07 1012.23 1012.39 1012.54 1012.66 1012.72 1012.73 1012.69 1012.61 1012.51 1012.41 1012.31 1012.24 1012.19 1012.14 1012.07 1011.98 1011.84 1011.64 1011.38 1011.07 1010.71 1010.31 1009.88 1009.44 1008.97 1008.48 1007.96 1007.41 1006.81 1006.19 1005.54 1004.88 1004.24 1003.63 1003.07 1002.56 1002.13 1001.76 1001.45 1001.18 1000.96 1000.77
1011.84 1012.03 1012.21 1012.37 1012.48 1012.54 1012.54 1012.50 1012.41 1012.31 1012.21 1012.12 1012.04 1011.98 1011.91 1011.83 1011.72 1011.56 1011.35 1011.08 1010.76 1010.40 1010.01 1009.59 1009.16 1008.71 1008.23 1007.73 1007.18 1006.60 1005.97 1005.32 1004.65 1003.99 1003.35 1002.76 1002.21 1001.73 1001.31 1000.95 1000.63 1000.37 1000.14
1011.77 1011.98 1012.15 1012.29 1012.38 1012.40 1012.37 1012.30 1012.18 1012.06 1011.93 1011.82 1011.73 1011.64 1011.56 1011.46 1011.32 1011.15 1010.92 1010.65 1010.33 1009.98 1009.60 1009.21 1008.79 1008.35 1007.89 1007.40 1006.86 1006.28 1005.65 1005.00 1004.33 1003.66 1003.01 1002.40 1001.83 1001.32 1000.87 1000.47 1000.12 999.82 999.57
1011.83 1012.03 1012.18 1012.28 1012.32 1012.30 1012.22 1012.09 1011.93 1011.77 1011.61 1011.47 1011.34 1011.23 1011.12 1011.00 1010.85 1010.66 1010.43 1010.15 1009.84 1009.50 1009.14 1008.75 1008.35 1007.93 1007.48 1006.98 1006.45 1005.87 1005.24 1004.59 1003.91 1003.24 1002.59 1001.98 1001.41 1000.90 1000.44 1000.03 999.66 999.34 999.07
Thickness
5766 5765 5764 5764 5763 5762 5761 5760 5759 5759 5758 5757 5756 5756 5755 5755 5754 5753 5752 5752 5751 5750 5748 5747 5746 5744 5743 5742 5740 5739 5737 5735 5735 5733 5732 5730 5729 5728 5727 5726 5725 5724 5723
5766 5764 5763 5763 5762 5762 5760 5759 5758 5758 5757 5757 5756 5756 5755 5755 5754 5754 5753 5752 5751 5750 5748 5747 5746 5745 5743 5742 5741 5739 5738 5737 5736 5734 5732 5730 5729 5728 5727 5726 5725 5724 5722
5766 5764 5763 5762 5762 5761 5760 5759 5758 5757 5757 5756 5755 5755 5755 5755 5754 5754 5753 5752 5751 5749 5748 5747 5746 5745 5743 5742 5741 5740 5739 5738 5736 5735 5733 5731 5729 5728 5727 5726 5725 5724 5722
5766 5764 5763 5762 5761 5760 5759 5758 5757 5756 5755 5754 5754 5754 5754 5754 5754 5752 5751 5751 5750 5748 5748 5747 5745 5744 5743 5742 5741 5740 5739 5738 5737 5735 5733 5732 5730 5729 5727 5726 5725 5724 5722
5766 5764 5763 5762 5761 5760 5759 5758 5756 5755 5753 5752 5753 5753 5753 5753 5752 5751 5750 5749 5748 5747 5746 5745 5744 5744 5743 5742 5741 5740 5739 5738 5737 5735 5734 5732 5731 5729 5728 5727 5726 5724 5723
5766 5764 5763 5762 5761 5759 5758 5756 5755 5754 5752 5751 5752 5752 5751 5751 5751 5750 5749 5748 5746 5745 5744 5743 5743 5742 5741 5741 5740 5739 5738 5737 5737 5735 5734 5733 5731 5730 5728 5727 5726 5725 5723
5766 5764 5763 5761 5760 5758 5757 5756 5754 5752 5751 5750 5748 5746 5748 5749 5749 5748 5747 5746 5745 5743 5742 5741 5741 5740 5740 5740 5739 5738 5737 5737 5735 5734 5733 5733 5731 5730 5729 5727 5726 5725 5724
5766 5764 5762 5761 5760 5758 5756 5755 5753 5750 5749 5748 5744 5740 5736 5739 5743 5746 5745 5744 5743 5741 5740 5740 5739 5739 5738 5738 5737 5737 5736 5736 5735 5734 5733 5733 5731 5730 5728 5727 5726 5725 5724
5766 5764 5762 5761 5759 5757 5755 5754 5752 5749 5746 5745 5744 5738 5732 5729 5733 5739 5741 5741 5740 5739 5738 5738 5738 5737 5737 5736 5735 5735 5735 5735 5733 5732 5732 5731 5730 5729 5728 5727 5726 5724 5723
5765 5764 5762 5761 5759 5757 5755 5754 5752 5749 5745 5742 5741 5739 5736 5734 5728 5729 5735 5737 5737 5737 5736 5737 5736 5735 5735 5734 5733 5733 5733 5732 5731 5730 5730 5729 5729 5728 5727 5727 5725 5724 5722
5764 5763 5762 5760 5758 5756 5754 5752 5751 5748 5745 5742 5739 5736 5734 5731 5729 5724 5725 5729 5732 5734 5734 5734 5734 5734 5733 5732 5732 5731 5731 5730 5729 5728 5728 5727 5726 5726 5726 5725 5724 5723 5722
5762 5761 5760 5758 5757 5755 5753 5751 5749 5746 5744 5741 5738 5735 5732 5729 5727 5724 5722 5724 5725 5730 5732 5733 5732 5732 5731 5731 5730 5729 5728 5727 5726 5726 5725 5724 5724 5723 5723 5723 5723 5722 5720
5759 5759 5759 5756 5755 5753 5752 5750 5747 5744 5742 5739 5737 5735 5733 5731 5729 5725 5722 5721 5721 5725 5727 5729 5730 5730 5729 5728 5727 5727 5725 5724 5724 5723 5722 5722 5721 5721 5720 5720 5720 5718 5718
5758 5757 5756 5755 5753 5751 5750 5747 5745 5742 5740 5738 5736 5733 5731 5730 5728 5726 5723 5719 5718 5719 5721 5724 5726 5727 5726 5725 5724 5724 5723 5722 5721 5720 5719 5719 5718 5717 5716 5716 5716 5715 5715
5756 5755 5753 5752 5750 5748 5747 5745 5742 5739 5737 5735 5733 5731 5729 5728 5727 5725 5723 5720 5715 5713 5716 5719 5720 5723 5722 5721 5721 5720 5719 5719 5718 5717 5716 5715 5714 5713 5713 5712 5712 5711 5712
5753 5751 5750 5748 5747 5745 5743 5741 5739 5736 5734 5732 5730 5728 5726 5725 5724 5722 5720 5718 5716 5712 5711 5715 5716 5717 5717 5717 5717 5716 5715 5715 5714 5713 5712 5711 5711 5710 5709 5708 5708 5708 5708
5751 5748 5747 5745 5743 5741 5739 5736 5735 5733 5730 5728 5727 5724 5723 5721 5719 5718 5717 5715 5713 5710 5708 5711 5712 5712 5711 5711 5711 5710 5710 5709 5709 5709 5708 5707 5706 5706 5705 5704 5704 5703 5703
5748 5746 5743 5741 5739 5737 5735 5733 5730 5729 5726 5724 5722 5720 5719 5718 5716 5714 5713 5711 5709 5707 5705 5704 5706 5706 5705 5705 5705 5704 5704 5704 5703 5703 5703 5702 5701 5701 5700 5700 5699 5698 5698
5744 5742 5740 5737 5736 5734 5732 5730 5727 5725 5723 5721 5719 5717 5715 5713 5711 5710 5708 5707 5705 5704 5701 5699 5699 5699 5699 5698 5697 5697 5698 5697 5697 5697 5697 5697 5696 5696 5695 5694 5694 5693 5693
5740 5738 5736 5734 5732 5730 5728 5726 5724 5720 5718 5716 5715 5713 5711 5709 5707 5706 5704 5702 5700 5697 5696 5694 5693 5692 5691 5691 5689 5689 5689 5690 5690 5691 5691 5691 5690 5690 5690 5690 5689 5689 5688
5735 5733 5731 5729 5727 5726 5725 5722 5719 5716 5713 5711 5709 5707 5706 5704 5702 5701 5700 5697 5695 5692 5689 5688 5686 5685 5684 5682 5682 5682 5681 5682 5684 5684 5684 5685 5684 5685 5685 5685 5684 5684 5683
5730 5728 5726 5724 5722 5721 5719 5717 5714 5711 5708 5706 5703 5702 5700 5698 5697 5695 5693 5692 5690 5687 5684 5682 5680 5678 5678 5677 5677 5675 5674 5673 5675 5678 5676 5678 5678 5679 5679 5679 5680 5679 5679
5724 5722 5720 5718 5716 5715 5713 5710 5708 5705 5702 5700 5698 5696 5694 5694 5691 5689 5687 5686 5684 5682 5680 5678 5676 5675 5674 5673 5670 5669 5667 5667 5668 5670 5668 5671 5672 5673 5674 5674 5674 5674 5674
5717 5715 5713 5711 5710 5709 5707 5704 5701 5698 5696 5694 5692 5690 5688 5686 5684 5682 5680 5679 5678 5676 5674 5672 5672 5671 5670 5668 5665 5663 5662 5661 5662 5662 5661 5662 5665 5666 5668 5667 5668 5668 5667
5710 5708 5706 5704 5702 5700 5699 5697 5694 5691 5689 5687 5686 5684 5681 5679 5678 5675 5672 5671 5670 5669 5668 5666 5665 5664 5663 5661 5658 5656 5654 5654 5655 5656 5655 5654 5657 5657 5659 5661 5661 5661 5660
5702 5701 5699 5696 5695 5693 5692 5690 5687 5684 5681 5679 5678 5677 5675 5673 5670 5667 5665 5663 5661 5661 5660 5660 5658 5657 5655 5654 5652 5650 5648 5646 5646 5647 5648 5646 5648 5647 5649 5653 5653 5653 5652